Cairns, Australia

2:29 AM AEST on March 27, 2017 (GMT +1000)
Cairns

Weather History for 94287 - December, 2012

Change the Weather History Date:

Sunday, December 23, 2012

  Actual Average Record
Temperature  
Mean Temperature 83 °F -  
Max Temperature 91 °F 89 °F - ()
Min Temperature 75 °F 74 °F - ()
Cooling Degree Days 18    
Growing Degree Days 33 (Base 50)    
Moisture  
Dew Point 72 °F    
Average Humidity 70    
Maximum Humidity 94    
Minimum Humidity 43    
Precipitation  
Precipitation 0.00 in 0.46 in - ()
Sea Level Pressure  
Sea Level Pressure 29.76 in    
Wind  
Wind Speed 10 mph ()    
Max Wind Speed 17 mph    
Max Gust Speed -    
Visibility 6.5 miles    
Events Rain    
T = Trace of Precipitation, MM = Missing Value Source: Averaged Metar Reports

Daily Weather History Graph

Daily Weather History Graph

Search for Another Location

Airport or City:

Trip Planner

Search our weather history database for the weather conditions in past years. The results will help you decide how hot, cold, wet, or windy it might be!

Date:

Astronomy

Dec. 23, 2012 Rise Set
Actual Time 5:41 AM AEST 6:50 PM AEST
Civil Twilight 5:17 AM AEST 7:14 PM AEST
Nautical Twilight 4:49 AM AEST 7:42 PM AEST
Astronomical Twilight 4:20 AM AEST 8:11 PM AEST
Moon 2:36 PM AEST (12/23) 1:37 AM AEST (12/23)
Length of Visible Light 13h 56m
Length of Day
13h 08m
Waxing Gibbous, 76% of the Moon is Illuminated
Dec 23
Waxing Gibbous
Dec 28
Full
Jan 5
Last Quarter
Jan 12
New
Jan 19
First Quarter

Hourly Weather History & Observations

Time (AEST) Temp. Heat Index Dew Point Humidity Pressure Visibility Wind Dir Wind Speed Gust Speed Precip Events Conditions
12:00 AM 79 °F - 70 °F 67% 29.77 in - South 9.2 mph - -  
12:00 AM 78.8 °F - 69.8 °F 74% 29.77 in 6.2 mi South 9.2 mph - N/A   Overcast
12:24 AM 77.0 °F - 71.6 °F 83% 29.77 in 3.7 mi SE 12.7 mph - N/A Rain Light Rain Showers
12:30 AM 77.0 °F - 73.4 °F 89% 29.77 in 5.0 mi SE 10.4 mph - N/A   Scattered Clouds
1:00 AM 77 °F - 72 °F 79% 29.77 in - South 9.2 mph - -  
1:00 AM 77.0 °F - 71.6 °F 83% 29.74 in 5.0 mi South 9.2 mph - N/A Rain Light Rain Showers
1:30 AM 77.0 °F - 71.6 °F 83% 29.74 in 6.2 mi South 10.4 mph - N/A   Scattered Clouds
2:00 AM 77.0 °F - 71.6 °F 83% 29.74 in 6.2 mi South 10.4 mph - N/A   Scattered Clouds
2:30 AM 77.0 °F - 71.6 °F 83% 29.71 in 6.2 mi South 9.2 mph - N/A   Mostly Cloudy
3:00 AM 78 °F - 71 °F 73% 29.73 in - South 9.2 mph - -  
3:00 AM 77.0 °F - 71.6 °F 83% 29.71 in 6.2 mi South 9.2 mph - N/A   Partly Cloudy
3:30 AM 78.8 °F - 71.6 °F 78% 29.71 in 6.2 mi South 10.4 mph - N/A   Scattered Clouds
4:00 AM 79 °F - 71 °F 70% 29.73 in - South 10.4 mph - -  
4:00 AM 78.8 °F - 71.6 °F 78% 29.71 in 6.2 mi South 10.4 mph - N/A   Partly Cloudy
4:30 AM 78.8 °F - 71.6 °F 78% 29.71 in 6.2 mi South 10.4 mph - N/A   Partly Cloudy
5:00 AM 78.8 °F - 71.6 °F 78% 29.71 in 6.2 mi South 10.4 mph - N/A   Partly Cloudy
5:30 AM 78.8 °F - 71.6 °F 78% 29.74 in 6.2 mi South 11.5 mph - N/A   Partly Cloudy
6:00 AM 79 °F - 71 °F 70% 29.75 in 19 mi South 12.7 mph - -   Partly Cloudy
6:00 AM 78.8 °F - 71.6 °F 78% 29.74 in 6.2 mi South 12.7 mph - N/A   Scattered Clouds
6:30 AM 80.6 °F 84.6 °F 71.6 °F 74% 29.77 in 6.2 mi South 9.2 mph - N/A   Scattered Clouds
7:00 AM 80 °F - 72 °F 69% 29.78 in - SSE 11.5 mph - -  
7:00 AM 80.6 °F 84.6 °F 71.6 °F 74% 29.77 in 6.2 mi SSE 11.5 mph - N/A   Scattered Clouds
7:30 AM 78.8 °F - 73.4 °F 83% 29.77 in 6.2 mi SSE 10.4 mph - N/A   Scattered Clouds
7:39 AM 78.8 °F - 73.4 °F 83% 29.77 in 3.7 mi SE 9.2 mph - N/A Rain Light Rain Showers
8:00 AM 77.0 °F - 75.2 °F 94% 29.77 in 6.2 mi SE 6.9 mph - N/A   Mostly Cloudy
8:30 AM 80.6 °F 87.1 °F 77.0 °F 89% 29.80 in 6.2 mi SE 5.8 mph - N/A   Scattered Clouds
9:00 AM 83 °F - 75 °F 72% 29.81 in 7 mi SE 11.5 mph - -   Mostly Cloudy
9:00 AM 82.4 °F 89.5 °F 75.2 °F 79% 29.80 in 6.2 mi SE 11.5 mph - N/A   Mostly Cloudy
9:30 AM 86.0 °F 93.4 °F 73.4 °F 66% 29.80 in 6.2 mi SSE 13.8 mph - N/A   Scattered Clouds
10:00 AM 87 °F - 71 °F 49% 29.81 in - SE 16.1 mph - -  
10:00 AM 86.0 °F 91.8 °F 71.6 °F 62% 29.80 in 6.2 mi SE 16.1 mph - N/A   Mostly Cloudy
10:30 AM 86.0 °F 91.8 °F 71.6 °F 62% 29.80 in 6.2 mi SE 13.8 mph - N/A   Mostly Cloudy
11:00 AM 87.8 °F 93.8 °F 71.6 °F 58% 29.77 in 6.2 mi SE 13.8 mph - N/A   Mostly Cloudy
11:30 AM 87.8 °F 93.8 °F 71.6 °F 58% 29.77 in 6.2 mi SE 12.7 mph - N/A   Mostly Cloudy
12:00 PM 87 °F - 72 °F 52% 29.78 in 6 mi SE 17.3 mph - -   Mostly Cloudy
12:00 PM 87.8 °F 93.8 °F 71.6 °F 58% 29.77 in 6.2 mi SE 17.3 mph - N/A   Scattered Clouds
12:30 PM 86.0 °F 91.8 °F 71.6 °F 62% 29.77 in 6.2 mi SE 16.1 mph - N/A   Mostly Cloudy
1:00 PM 87 °F - 72 °F 52% 29.77 in - SSE 10.4 mph - -  
1:00 PM 87.8 °F 93.8 °F 71.6 °F 58% 29.77 in 6.2 mi SSE 10.4 mph - N/A   Mostly Cloudy
1:30 PM 87.8 °F 93.8 °F 71.6 °F 58% 29.74 in 6.2 mi East 16.1 mph - N/A   Scattered Clouds
2:00 PM 91.4 °F 98.4 °F 71.6 °F 52% 29.74 in 6.2 mi East 17.3 mph - N/A   Scattered Clouds
2:30 PM 91.4 °F 96.8 °F 69.8 °F 49% 29.71 in 6.2 mi East 17.3 mph - N/A   Scattered Clouds
3:00 PM 88 °F - 69 °F 44% 29.72 in 16 mi ESE 15.0 mph - -   Partly Cloudy
3:00 PM 87.8 °F 92.6 °F 69.8 °F 55% 29.71 in 6.2 mi ESE 15.0 mph - N/A   Scattered Clouds
3:30 PM 87.8 °F 93.8 °F 71.6 °F 58% 29.71 in 6.2 mi East 16.1 mph - N/A   Scattered Clouds
4:00 PM 90 °F - 70 °F 43% 29.73 in - ESE 17.3 mph - -  
4:00 PM 89.6 °F 94.7 °F 69.8 °F 52% 29.71 in 6.2 mi ESE 17.3 mph - N/A   Scattered Clouds
4:30 PM 86.0 °F 90.4 °F 69.8 °F 58% 29.71 in 6.2 mi ESE 13.8 mph - N/A   Scattered Clouds
5:00 PM 86.0 °F 91.8 °F 71.6 °F 62% 29.71 in 6.2 mi ESE 15.0 mph - N/A   Scattered Clouds
5:30 PM 84.2 °F 89.6 °F 71.6 °F 66% 29.74 in 6.2 mi ESE 13.8 mph - N/A   Scattered Clouds
6:00 PM 83 °F - 71 °F 60% 29.75 in - SE 13.8 mph - -  
6:00 PM 84.2 °F 89.6 °F 71.6 °F 66% 29.74 in 6.2 mi SE 13.8 mph - N/A   Scattered Clouds
6:30 PM 84.2 °F 89.6 °F 71.6 °F 66% 29.77 in 6.2 mi SE 12.7 mph - N/A   Scattered Clouds
7:00 PM 83 °F - 72 °F 63% 29.78 in - SSE 10.4 mph - -  
7:00 PM 82.4 °F 88.2 °F 73.4 °F 74% 29.77 in 6.2 mi SSE 10.4 mph - N/A   Mostly Cloudy
7:30 PM 82.4 °F 88.2 °F 73.4 °F 74% 29.77 in 6.2 mi SE 10.4 mph - N/A   Mostly Cloudy
8:00 PM 82.4 °F 88.2 °F 73.4 °F 74% 29.77 in 6.2 mi SE 10.4 mph - N/A   Mostly Cloudy
8:30 PM 82.4 °F 88.2 °F 73.4 °F 74% 29.80 in 6.2 mi South 6.9 mph - N/A   Mostly Cloudy
9:00 PM 81 °F - 73 °F 71% 29.80 in - South 6.9 mph - -  
9:00 PM 80.6 °F 85.4 °F 73.4 °F 79% 29.80 in 6.2 mi South 6.9 mph - N/A   Scattered Clouds
9:30 PM 80.6 °F 85.4 °F 73.4 °F 79% 29.80 in 6.2 mi SSE 8.1 mph - N/A   Scattered Clouds
10:00 PM 80 °F - 74 °F 76% 29.82 in - South 10.4 mph - -  
10:00 PM 78.8 °F - 73.4 °F 83% 29.80 in 6.2 mi South 10.4 mph - N/A   Mostly Cloudy
10:30 PM 78.8 °F - 71.6 °F 78% 29.80 in 6.2 mi South 11.5 mph - N/A   Mostly Cloudy
11:00 PM 80.6 °F 85.4 °F 73.4 °F 79% 29.80 in 6.2 mi South 9.2 mph - N/A   Mostly Cloudy
11:30 PM 78.8 °F - 73.4 °F 83% 29.80 in 5.6 mi SSE 11.5 mph - N/A Rain Light Rain Showers